Regional Weather Roundup
Issued by NWS

Home | Current Version | Previous Version | Text Only | Print | Product List | Glossary On
Versions: 1 2 3 4 5 6 7 8 9 10 11 12 13 14 15 16 17 18 19 20 21 22 23 24 25 26 27 28 29 30 31 32 33 34 35 36 37 38 39 40 41 42 43 44 45 46 47 48 49
000
ASUS45 KBOU 240507
RWRCO

WEATHER ROUNDUP FOR COLORADO
NATIONAL WEATHER SERVICE DENVER/BOULDER CO
1100 PM MDT TUE SEP 23 2014

NOTE: "FAIR" INDICATES FEW OR NO CLOUDS BELOW 12000 FEET WITH NO
SIGNIFICANT WEATHER AND/OR OBSTRUCTIONS TO VISIBILITY.

COZ001>005-013-030-031-240600-
...NORTHWEST COLORADO...

CITY           SKY/WX    TMP DP  RH WIND       PRES   REMARKS
CRAIG          CLEAR     52  46  80 CALM      30.30R
HAYDEN         CLEAR     54  43  66 E8        30.31S
MEEKER         CLEAR     53  44  71 NE7       30.31R
MOUNT WERNER   NOT AVBL
STEAMBOAT SPGS CLEAR     53  45  75 CALM      30.34S
WALDEN         CLEAR     41  37  87 SE8       30.41R
$$

COZ006>008-011-240600-
...WEST CENTRAL VALLEYS...

CITY           SKY/WX    TMP DP  RH WIND       PRES   REMARKS
GRAND JUNCTION CLEAR     63  47  55 E7        30.18R
MONTROSE       CLEAR     60  49  66 SE9       30.28R
EAGLE          CLEAR     54  48  82 CALM      30.36R
RIFLE          CLEAR     59  45  59 CALM      30.25R
DELTA          CLEAR     64  51  61 E7        30.23R HAZE
NUCLA          NOT AVBL
$$

COZ017>023-064>068-240600-
...SOUTHWEST COLORADO...

CITY           SKY/WX    TMP DP  RH WIND       PRES   REMARKS
DURANGO        CLEAR     55  45  68 CALM      30.29R
CORTEZ         CLEAR     55  46  71 NE6       30.27R
PAGOSA SPRINGS CLEAR     53  42  68 CALM      30.37R
TELLURIDE      NOT AVBL
WOLF CREEK PAS CLEAR     43  34  70 N5        30.64R
$$

COZ009-010-012-014-032>034-037-058>063-240600-
...CENTRAL COLORADO...

CITY           SKY/WX    TMP DP  RH WIND       PRES   REMARKS
ASPEN          CLEAR     49  42  77 SW10      30.40R
BUENA VISTA    CLEAR     52  41  67 NW8       30.41R
COPPER MTN     PTCLDY    45  36  70 W9        30.67R
BERTHOUD PASS  FAIR      36  34  93 NW23      30.67S
COTTONWOOD PAS CLEAR     55  34  44 NW9G16    30.52R
GUNNISON       CLEAR     50  39  66 NW6       30.42R
KREMMLING      CLEAR     50  45  81 CALM      30.40S
LEADVILLE      PTCLDY    42  35  76 E5        30.53R
MONARCH PASS   CLEAR     43  34  70 W13       30.76S
SALIDA         CLEAR     55  43  63 CALM      30.45R
SUNLIGHT       CLEAR     50  41  71 CALM      30.60S
WILKERSON PASS NOT AVBL
$$

COZ069>075-240600-
...SAN LUIS VALLEY/SANGRE DE CRISTO MOUNTAINS...

CITY           SKY/WX    TMP DP  RH WIND       PRES   REMARKS
ALAMOSA        PTCLDY    56  35  45 N10       30.34R
LA VETA PASS   CLEAR     46  36  66 NE13G18   30.52S
SAGUACHE       CLEAR     54  39  58 W12G17    30.38R
$$

COZ035-036-038>040-240600-
...NORTHERN COLORADO FRONT RANGE...

CITY           SKY/WX    TMP DP  RH WIND       PRES   REMARKS
DENVER INTL AP PTCLDY    63  43  48 S9        30.21R
DMNS CITY PARK   N/A     62  47  56 S3        30.21S
AURORA         PTCLDY    59  45  60 S8        30.24R
FRONT RANGE AP PTCLDY    59  46  63 S6        30.22R
ERIE MUNI ARPT CLEAR     59  46  62 S5        30.20R
BOULDER MUN AP PTCLDY    63  43  48 S5        30.20S
CENTENNIAL     PTCLDY    59  47  64 S6        30.25R
BROOMFIELD     NOT AVBL
FORT COLLINS   PTCLDY    63  46  55 SE3       30.19S
LONGMONT       PTCLDY    62  46  57 CALM      30.21R
$$

COZ041-046-047-076>085-087-088-240600-
...PIKES PEAK/PALMER DIVIDE AND SOUTHERN FOOTHILLS...

CITY           SKY/WX    TMP DP  RH WIND       PRES   REMARKS
COLO. SPRINGS  PTCLDY    64  41  42 NW6       30.28R
A. F. ACADEMY  PTCLDY    53  41  64 N10       30.30R
ELLICOTT       NOT AVBL
FALCON         PTCLDY    59  40  49 N8        30.32R
FORT CARSON    PTCLDY    59  42  53 NW7       30.24R
LIMON          MOCLDY    55  48  77 N3        30.22R
MONUMENT HILL  PTCLDY    50  37  62 SW6       30.32R
TRINIDAD       CLEAR     62  43  49 NW9       30.21R
$$

COZ042>045-048>051-090-091-240600-
...NORTHEAST COLORADO...

CITY           SKY/WX    TMP DP  RH WIND       PRES   REMARKS
GREELEY ARPT   PTCLDY    54  41  62 N3        30.17R
AKRON          PTCLDY    59  49  69 W9        30.14R
BURLINGTON     PTCLDY    59  53  80 SW8       30.11S
WRAY           CLEAR     60  55  83 W6        30.08R
STERLING       CLEAR     55  48  76 W7        30.11R
HOLYOKE        CLEAR     59  52  77 W3        30.08R
FORT MORGAN    PTCLDY    60  42  51 W6        30.15R
$$

COZ086-089-092>099-240600-
...SOUTHEAST COLORADO...

CITY           SKY/WX    TMP DP  RH WIND       PRES   REMARKS
PUEBLO         PTCLDY    67  45  45 W6        30.18R
LA JUNTA       PTCLDY    64  53  67 NE8       30.12R
LAMAR          MOCLDY    61  51  70 N5        30.08R
SPRINGFIELD      N/A     67  56  67 S8        30.11R
$$



USA.gov is the U.S. government's official web portal to all federal, state and local government web resources and services.